カタログに戻る

STARLINK-31978

運用中通信VLEO
NORAD 60016·PAYLOAD·🇺🇸 United States

打ち上げ Jun 8, 2024 から Cape Canaveral Space Force Station

Loading…

次のパス (今後24時間)

TLE

最新Source: CelesTrak SupGP

元期: Sep 14, 2026, 22:36 UTC

1 60016C 24111A   26257.94215278  .00052121  00000+0  16765-2 0  2576
2 60016  53.1574 275.4317 0001097  89.1747 318.9269 15.31668136    11

AllMySatでSTARLINK-31978をリアルタイム追跡

Download on the App Store